Location: Lane
(33.5226°N, 79.8788°W)
Time: 19:19:14
(UTC+00:00)

Courier 1B Rocket - Pass Details

Date: 07 October 2022
Orbit: 920 x 1202 km, 28.3° (Epoch: 01 December)

Event Time Altitude Azimuth Distance (km) Brightness Sun altitude
Rises 22:26:43 0° 245° (WSW) 3,959 10.1 5.2°
Reaches altitude 10° 22:29:41 10° 240° (WSW) 2,959 9.1 4.6°
Maximum altitude 22:36:33 47° 169° (SSE) 1,361 5.9 3.2°
Drops below altitude 10° 22:42:58 10° 97° (E) 2,762 6.8 1.8°
Sets 22:45:38 0° 92° (E) 3,673 7.3 1.3°
